Wind_Speed
12 13 16 17 15 14 12 10 8 7 6 4 3 3 3 3 3 4 4 5 5 6 6 6 7 7 7 7 8 8 9 9 10 10 11 11 12 12 13 13 14 15 16
10 13 15 15 14 13 11 9 8 7 6 4 3 2 3 3 4 4 4 5 5 6 6 7 7 8 8 8 9 9 10 10 10 11 11 11 12 12 13 13 14 15 16
10 12 13 15 14 12 11 10 8 7 6 4 3 3 3 3 3 4 4 5 6 6 7 7 8 9 9 8 8 9 9 10 11 12 13 13 13 13 13 14 15 15 16
9 11 14 14 13 12 10 9 8 6 5 4 4 4 3 3 3 3 4 5 5 6 7 7 8 8 9 9 9 9 9 10 11 13 14 14 15 15 15 15 16 17 17
8 10 13 12 12 11 9 8 7 6 5 5 5 4 4 4 4 4 4 5 6 6 7 7 8 8 8 9 10 10 11 11 12 13 14 15 16 17 17 18 18 19 20
6 8 10 10 10 9 8 7 6 6 6 6 5 5 5 4 4 4 5 5 6 6 7 7 8 8 9 10 11 12 13 13 14 15 16 16 17 18 19 20 20 21 22
5 6 7 8 8 7 7 7 7 7 7 7 6 6 5 5 5 5 5 6 7 7 8 9 10 11 11 12 13 13 15 15 16 17 17 18 18 19 20 21 22 22 23
4 5 6 7 7 7 7 8 8 8 8 8 7 6 6 6 6 7 7 8 9 10 11 12 13 14 15 15 16 17 18 18 19 19 20 20 20 20 21 22 23 24 24
5 6 6 7 7 8 8 9 9 9 9 9 8 8 8 8 8 9 9 10 11 13 14 15 16 17 17 18 18 19 20 20 21 22 23 23 23 23 23 23 24 24 25
7 8 8 9 9 9 10 10 11 11 11 11 11 10 11 10 10 11 12 13 14 15 16 17 18 19 19 20 20 21 21 22 23 24 25 25 26 26 26 25 25 26 26
10 10 11 11 11 11 11 12 12 12 13 13 13 13 13 13 13 13 15 16 17 18 19 20 21 22 22 23 23 24 24 25 25 26 27 27 28 28 27 28 28 28 28
10 11 12 13 13 13 14 14 14 14 15 15 16 16 16 16 16 16 17 19 20 21 22 23 24 24 25 25 26 26 27 27 28 29 29 30 30 30 30 30 29 29 29
11 12 13 14 15 15 15 15 16 16 17 17 18 18 19 19 19 19 21 22 23 24 25 26 26 27 27 28 28 29 29 30 30 30 31 32 32 32 32 32 31 31 31
12 13 13 14 15 16 16 16 17 18 19 19 19 20 21 21 22 23 24 25 26 27 28 29 29 30 30 31 31 31 31 31 32 33 33 34 33 34 34 33 33 33 33
14 14 14 14 15 16 16 17 17 18 19 20 21 22 23 23 24 25 27 28 29 29 31 32 32 33 33 33 33 34 34 34 35 36 36 35 35 36 35 35 35 35 35
16 16 15 15 16 16 16 17 18 20 20 21 23 24 25 26 27 28 29 30 31 32 33 34 35 35 35 36 36 36 36 37 37 38 38 38 38 38 37 37 37 37 37
19 19 19 18 18 18 18 20 21 23 24 25 26 27 28 29 30 31 32 33 34 35 36 36 37 37 38 39 39 39 39 39 39 40 40 40 39 39 39 39 39 39 39
20 20 20 20 20 21 22 23 24 25 26 28 28 29 31 32 34 34 35 36 37 38 38 39 40 41 40 42 43 43 42 42 42 42 42 42 41 42 42 41 41 41 41
23 22 22 22 22 23 24 26 27 29 30 31 31 32 34 35 37 38 39 40 41 41 42 43 44 44 44 45 46 47 46 45 45 45 44 44 44 44 44 43 42 42 43
24 23 24 24 25 26 27 28 30 31 32 34 35 35 37 38 40 41 43 44 44 45 46 47 48 49 48 48 49 49 49 48 48 47 47 47 47 46 47 46 44 43 44
22 23 25 25 27 28 30 31 32 34 35 36 37 38 40 41 43 45 46 47 49 50 50 51 52 52 52 52 52 52 53 52 52 51 50 50 50 49 49 48 47 45 45
22 24 26 27 29 30 32 33 35 36 38 39 41 42 43 45 46 48 49 50 52 53 53 54 54 55 55 56 56 56 56 56 56 54 53 53 53 52 51 50 49 48 46
24 25 27 29 30 32 33 35 37 38 40 41 43 44 45 47 48 50 51 53 54 55 56 57 58 58 58 59 59 59 59 60 60 58 57 57 56 55 53 52 51 49 47
26 28 29 31 32 34 36 37 39 40 42 43 45 46 47 49 51 53 54 56 57 59 60 61 62 62 62 62 63 63 63 63 63 62 61 60 59 57 55 53 51 49 47
29 30 32 33 34 36 37 39 41 42 44 46 47 49 50 52 54 55 57 59 61 63 64 65 66 66 66 66 66 66 66 66 66 65 64 61 60 58 55 53 51 50 47
30 32 33 35 36 38 40 42 44 45 47 48 50 52 54 55 57 59 61 62 64 66 67 69 69 69 70 69 69 69 68 67 67 66 64 61 58 56 54 52 51 49 48
Wind_Direction
197 192 186 183 182 181 178 178 183 188 196 201 213 236 259 280 298 308 316 322 330 337 338 337 334 329 324 319 315 315 315 313 309 304 299 294 289 285 281 277 273 269 266
183 181 180 174 173 172 168 170 176 178 183 193 210 243 267 285 295 300 310 320 329 338 340 339 339 337 332 326 322 318 314 311 310 308 306 302 296 290 285 280 276 272 268
171 172 168 168 168 167 168 170 174 177 187 202 222 248 266 281 288 298 314 329 336 340 342 342 341 341 338 334 330 326 322 316 312 309 306 304 301 296 290 284 279 276 272
156 161 163 164 167 167 169 174 180 184 195 212 230 242 254 268 282 302 323 336 340 343 344 345 346 345 346 346 344 342 336 329 322 315 309 305 301 298 293 288 283 280 276
146 159 166 164 166 168 175 185 190 196 209 220 229 240 251 266 284 304 321 331 336 340 344 345 346 346 347 346 345 343 339 334 328 321 316 311 305 300 295 289 285 282 279
141 152 162 166 167 174 186 196 203 208 217 224 231 240 254 269 284 295 308 320 327 332 333 333 333 332 332 333 333 331 329 327 326 323 318 313 308 303 298 292 287 284 281
149 156 166 176 183 192 200 208 212 217 224 230 235 244 257 269 279 289 300 308 312 315 315 315 316 318 317 317 318 319 319 319 319 319 318 315 311 306 301 296 290 286 283
186 184 187 192 200 208 213 219 224 228 231 235 240 250 261 269 278 287 296 302 306 307 306 307 308 309 310 309 309 310 311 310 310 310 311 310 309 308 304 299 294 290 287
227 222 219 220 224 228 230 233 237 238 241 244 248 256 264 271 279 287 294 300 303 304 304 305 305 305 305 305 306 307 307 308 308 307 308 307 305 305 303 300 295 292 289
249 244 242 242 244 246 245 246 247 249 251 253 256 260 266 272 280 288 294 297 298 299 300 299 300 301 302 303 305 305 304 305 307 307 307 306 305 304 301 299 297 293 291
258 253 253 253 253 254 254 255 255 254 256 258 260 264 268 273 279 285 289 292 295 296 298 298 298 298 298 300 301 302 302 304 306 307 307 306 305 302 300 298 297 294 292
263 259 257 257 257 258 259 258 257 256 258 260 262 265 268 272 277 282 285 288 291 293 295 297 297 298 298 299 300 302 302 304 305 306 306 306 305 302 299 298 296 295 293
268 263 260 258 258 257 258 257 257 257 258 260 263 266 269 273 277 281 284 287 289 292 294 295 296 297 298 299 299 301 302 303 304 304 305 305 304 302 300 298 296 295 295
267 265 263 261 257 256 257 258 259 261 262 264 267 270 273 276 279 282 285 287 290 291 293 294 295 296 298 298 298 299 301 302 302 302 303 303 302 302 301 298 296 295 295
263 263 265 265 261 258 258 260 262 264 266 270 272 275 277 280 282 284 286 288 290 291 292 293 294 296 297 297 297 299 299 300 301 301 302 301 301 301 300 298 297 296 295
262 262 266 266 264 264 266 268 269 271 272 275 277 279 281 282 284 286 288 289 290 291 291 293 293 295 296 296 297 298 298 299 299 299 300 300 299 298 298 297 296 296 295
262 262 263 265 267 270 273 275 276 278 278 280 281 283 284 286 286 287 289 290 290 290 291 292 292 293 294 294 296 296 296 297 298 298 298 298 298 297 297 297 296 295 294
256 260 261 263 267 272 275 278 281 281 282 284 285 286 287 288 288 288 289 289 288 290 291 291 291 291 291 293 293 294 294 295 296 296 296 296 296 296 296 296 295 294 293
253 256 259 262 269 274 277 280 283 283 285 285 286 287 287 287 287 287 288 288 288 289 289 290 291 291 290 291 291 292 293 293 293 294 294 294 294 295 295 295 295 293 292
253 256 261 264 269 274 276 279 281 282 283 284 285 286 287 287 286 286 286 287 287 288 288 289 290 290 290 289 290 290 291 291 291 292 292 293 293 293 293 293 293 293 291
262 265 267 269 273 277 279 280 282 283 284 284 285 285 285 285 285 285 285 286 286 286 287 288 289 289 289 289 288 289 289 289 289 290 291 291 292 292 292 292 292 291 290
271 271 272 275 277 279 280 281 282 283 284 284 284 284 284 284 284 284 285 285 285 286 286 286 287 287 288 287 287 287 287 288 288 288 289 289 290 290 290 290 289 289 289
276 278 279 279 280 281 282 283 284 284 285 285 285 285 285 285 285 285 285 285 286 286 286 286 286 286 286 286 285 285 285 285 286 286 287 287 287 287 287 288 287 287 286
281 283 284 284 285 285 285 286 286 286 287 287 287 287 287 287 287 287 287 287 287 287 286 286 286 286 285 285 284 284 284 284 284 284 283 284 284 284 284 284 284 284 283
285 286 287 288 288 288 289 289 289 289 289 289 289 289 289 289 288 288 288 288 287 287 286 286 285 285 284 283 283 282 282 282 282 281 281 281 281 281 281 280 280 279 279
287 288 289 289 290 290 291 291 291 292 292 291 291 291 290 290 289 289 288 288 288 287 287 286 285 284 284 283 282 281 281 280 280 279 280 279 279 278 277 277 276 275 275
Height
5838 5840 5843 5846 5850 5854 5857 5860 5862 5864 5866 5867 5868 5868 5869 5869 5869 5869 5869 5869 5868 5867 5866 5866 5865 5864 5864 5863 5862 5862 5861 5860 5860 5860 5860 5859 5859 5859 5859 5860 5860 5860 5860
5837 5840 5843 5845 5850 5853 5856 5859 5862 5863 5865 5866 5867 5867 5868 5868 5868 5868 5868 5868 5867 5866 5865 5865 5864 5863 5862 5861 5861 5860 5859 5859 5858 5858 5857 5857 5857 5856 5856 5856 5856 5857 5857
5839 5841 5843 5846 5850 5853 5856 5859 5861 5862 5864 5865 5866 5867 5867 5867 5867 5867 5867 5866 5866 5865 5864 5863 5863 5862 5861 5860 5859 5858 5857 5857 5856 5855 5855 5854 5854 5853 5853 5853 5853 5852 5853
5841 5842 5845 5848 5851 5853 5856 5858 5860 5862 5863 5864 5865 5866 5866 5866 5866 5866 5865 5865 5864 5864 5863 5862 5861 5861 5860 5859 5858 5857 5856 5855 5854 5853 5852 5851 5850 5850 5849 5849 5849 5848 5848
5842 5843 5846 5848 5851 5853 5856 5858 5860 5861 5862 5863 5864 5864 5865 5865 5865 5864 5864 5863 5863 5862 5861 5861 5860 5859 5858 5857 5856 5855 5854 5853 5851 5850 5849 5847 5847 5846 5845 5845 5844 5844 5843
5845 5845 5847 5849 5851 5854 5856 5858 5859 5860 5861 5862 5863 5863 5863 5863 5863 5863 5862 5862 5861 5861 5860 5859 5858 5857 5856 5855 5854 5852 5851 5850 5849 5847 5846 5844 5843 5841 5840 5839 5839 5838 5838
5848 5848 5849 5850 5852 5854 5856 5857 5858 5859 5860 5861 5861 5862 5862 5862 5861 5861 5860 5860 5859 5859 5858 5857 5856 5855 5854 5853 5851 5850 5848 5847 5845 5844 5842 5840 5838 5837 5835 5834 5832 5832 5831
5849 5849 5850 5851 5853 5854 5855 5856 5857 5858 5858 5859 5859 5860 5860 5860 5859 5859 5858 5858 5857 5856 5855 5855 5854 5852 5851 5849 5848 5846 5845 5843 5841 5839 5838 5836 5834 5832 5830 5828 5826 5825 5824
5849 5849 5850 5851 5852 5853 5854 5854 5855 5856 5856 5856 5857 5857 5857 5857 5857 5856 5855 5855 5854 5853 5852 5851 5850 5848 5847 5845 5844 5842 5840 5838 5836 5834 5832 5830 5828 5826 5824 5822 5820 5819 5817
5848 5848 5849 5850 5850 5851 5851 5852 5853 5853 5853 5853 5854 5854 5854 5854 5853 5852 5852 5851 5850 5849 5848 5847 5845 5844 5842 5840 5839 5837 5835 5833 5831 5828 5826 5824 5822 5819 5817 5815 5813 5812 5810
5846 5846 5846 5847 5848 5848 5848 5849 5849 5849 5850 5850 5850 5850 5850 5850 5849 5848 5847 5846 5845 5844 5843 5842 5840 5839 5837 5835 5833 5831 5829 5826 5824 5822 5819 5817 5814 5812 5810 5808 5806 5804 5802
5844 5844 5844 5844 5844 5845 5845 5845 5846 5846 5846 5846 5846 5846 5846 5845 5844 5843 5842 5841 5840 5839 5837 5836 5834 5833 5831 5828 5826 5824 5822 5820 5817 5815 5812 5809 5807 5804 5802 5799 5797 5795 5794
5842 5842 5842 5841 5842 5842 5842 5842 5842 5842 5842 5842 5842 5841 5840 5839 5838 5837 5836 5835 5833 5832 5831 5829 5828 5826 5824 5821 5819 5817 5815 5812 5810 5807 5804 5801 5799 5796 5793 5791 5788 5786 5784
5840 5839 5839 5838 5838 5839 5839 5838 5838 5838 5838 5837 5836 5836 5835 5833 5832 5831 5829 5828 5826 5825 5823 5822 5820 5818 5816 5814 5811 5809 5807 5804 5801 5798 5796 5793 5790 5787 5784 5781 5779 5777 5774
5837 5836 5836 5835 5835 5835 5834 5834 5833 5833 5832 5831 5830 5829 5828 5827 5825 5823 5822 5820 5818 5817 5815 5813 5811 5809 5807 5805 5803 5801 5798 5796 5793 5790 5787 5784 5781 5778 5775 5772 5769 5766 5764
5833 5832 5831 5831 5831 5830 5829 5829 5828 5827 5826 5825 5824 5822 5821 5819 5817 5815 5813 5812 5810 5808 5806 5804 5802 5800 5798 5796 5794 5791 5789 5786 5783 5780 5777 5774 5771 5768 5765 5762 5759 5756 5753
5827 5827 5826 5826 5825 5825 5824 5823 5822 5820 5819 5818 5816 5814 5813 5811 5809 5807 5805 5803 5801 5799 5797 5795 5793 5791 5788 5786 5783 5781 5778 5776 5773 5770 5766 5763 5760 5757 5754 5751 5748 5745 5742
5821 5821 5820 5820 5819 5818 5817 5816 5815 5813 5812 5810 5808 5806 5804 5802 5800 5798 5796 5794 5791 5789 5787 5785 5782 5780 5778 5775 5772 5769 5766 5764 5762 5758 5755 5752 5749 5745 5742 5739 5736 5733 5730
5813 5813 5813 5813 5812 5811 5810 5808 5807 5805 5803 5801 5799 5797 5795 5793 5791 5788 5786 5783 5780 5778 5776 5773 5771 5768 5766 5763 5760 5756 5754 5752 5749 5746 5743 5740 5737 5733 5729 5727 5724 5721 5717
5805 5806 5806 5805 5805 5804 5802 5801 5799 5797 5795 5793 5790 5788 5786 5783 5781 5778 5775 5772 5769 5766 5764 5761 5758 5755 5753 5750 5746 5743 5740 5738 5736 5732 5729 5726 5723 5720 5716 5713 5711 5708 5704
5798 5798 5798 5797 5796 5795 5793 5792 5789 5787 5785 5783 5780 5778 5775 5772 5769 5766 5763 5760 5757 5754 5750 5748 5745 5742 5739 5736 5732 5728 5725 5723 5720 5717 5715 5711 5708 5705 5701 5699 5697 5694 5691
5791 5790 5789 5788 5787 5786 5784 5782 5779 5777 5775 5772 5769 5766 5763 5760 5757 5754 5750 5747 5743 5740 5736 5733 5730 5727 5723 5720 5716 5713 5709 5706 5703 5701 5699 5696 5692 5689 5686 5684 5682 5679 5676
5784 5783 5781 5780 5778 5776 5774 5771 5769 5766 5763 5760 5757 5754 5750 5747 5743 5740 5736 5732 5728 5724 5720 5717 5714 5711 5707 5703 5699 5696 5692 5688 5685 5684 5682 5679 5676 5673 5670 5668 5666 5663 5661
5776 5774 5772 5770 5768 5765 5763 5760 5757 5754 5751 5748 5744 5741 5737 5733 5729 5724 5720 5716 5711 5707 5703 5699 5695 5692 5689 5685 5681 5677 5673 5670 5667 5665 5663 5661 5658 5656 5654 5652 5650 5648 5646
5767 5764 5762 5760 5757 5754 5751 5748 5745 5742 5738 5734 5730 5726 5722 5718 5713 5708 5703 5698 5694 5688 5684 5679 5675 5671 5668 5665 5660 5656 5653 5650 5647 5644 5643 5641 5640 5638 5636 5635 5633 5632 5631
5758 5755 5752 5750 5747 5743 5740 5737 5733 5729 5725 5721 5716 5711 5707 5702 5696 5691 5686 5680 5674 5669 5662 5656 5652 5648 5645 5641 5638 5634 5631 5628 5624 5622 5622 5621 5620 5619 5618 5617 5616 5616 5615